,,Stat6,,Stat2,,Stat8,,Stat9,,Stat10,,Wind1,,Wind1,
time,status,PA1M_AVG,status,PR1M_SUM,status,RH1M_AVG,status,SR1M_AVG,status,TA1M_AVG,status,W1dAve1m,status,W1sAve1m,
2004-08-22, 00:00:00,VALID,918.195,VALID,0,VALID,98.0801,VALID,0.0339617,VALID,20.4834,VALID,76,VALID,0.482214,
2004-08-22, 00:01:00,VALID,918.181,VALID,0,VALID,98.0611,VALID,0,VALID,20.5022,VALID,30,VALID,0.549733,
2004-08-22, 00:02:00,VALID,918.176,VALID,0,VALID,97.8919,VALID,0,VALID,20.4928,VALID,13,VALID,0.625533,
2004-08-22, 00:03:00,VALID,918.178,VALID,0,VALID,97.8309,VALID,-0.0339617,VALID,20.4804,VALID,10,VALID,0.825921,
2004-08-22, 00:04:00,VALID,918.19,VALID,0,VALID,97.8347,VALID,-0.0169808,VALID,20.4707,VALID,10,VALID,0.90952,
2004-08-22, 00:05:00,VALID,918.196,VALID,0,VALID,97.9085,VALID,0,VALID,20.4414,VALID,10,VALID,0.575648,
2004-08-22, 00:06:00,VALID,918.188,VALID,0,VALID,98.0382,VALID,0,VALID,20.4484,VALID,10,VALID,0.272711,
2004-08-22, 00:07:00,VALID,918.191,VALID,0,VALID,98.1056,VALID,-0.0169808,VALID,20.4347,VALID,10,VALID,0.267578,
2004-08-22, 00:08:00,VALID,918.18,VALID,0,VALID,98.0623,VALID,0,VALID,20.4481,VALID,10,VALID,0.570694,
2004-08-22, 00:09:00,VALID,918.16,VALID,0,VALID,98.0191,VALID,-0.0169808,VALID,20.4449,VALID,10,VALID,0.410547,
2004-08-22, 00:10:00,VALID,918.132,VALID,0,VALID,98.0293,VALID,-0.0339617,VALID,20.4484,VALID,10,VALID,0.253811,
2004-08-22, 00:11:00,VALID,918.105,VALID,0,VALID,98.0102,VALID,0,VALID,20.4446,VALID,10,VALID,0.078497,
2004-08-22, 00:12:00,VALID,918.097,VALID,0,VALID,97.9275,VALID,0,VALID,20.4315,VALID,10,VALID,0.0974864,
2004-08-22, 00:13:00,VALID,918.073,VALID,0,VALID,97.897,VALID,-0.0169808,VALID,20.432,VALID,10,VALID,0.359012,
2004-08-22, 00:14:00,VALID,918.069,VALID,0,VALID,97.9352,VALID,-0.0169808,VALID,20.4352,VALID,10,VALID,0.574505,
2004-08-22, 00:15:00,VALID,918.085,VALID,0,VALID,97.9644,VALID,-0.0169808,VALID,20.4347,VALID,10,VALID,0.417151,
2004-08-22, 00:16:00,VALID,918.075,VALID,0,VALID,97.9237,VALID,-0.0169808,VALID,20.4285,VALID,7,VALID,0.409702,
2004-08-22, 00:17:00,VALID,918.066,VALID,0,VALID,98.1234,VALID,0,VALID,20.4215,VALID,348,VALID,0.574886,
2004-08-22, 00:18:00,VALID,918.054,VALID,0,VALID,98.1742,VALID,0,VALID,20.4352,VALID,348,VALID,0.46503,
2004-08-22, 00:19:00,VALID,918.007,VALID,0,VALID,98.2098,VALID,0,VALID,20.4287,VALID,348,VALID,0.297877,
2004-08-22, 00:20:00,VALID,917.975,VALID,0,VALID,98.1628,VALID,-0.0169808,VALID,20.4156,VALID,348,VALID,0.282315,
2004-08-22, 00:21:00,VALID,917.954,VALID,0,VALID,98.2518,VALID,-0.0169808,VALID,20.4185,VALID,348,VALID,0.323103,
2004-08-22, 00:22:00,VALID,917.94,VALID,0,VALID,98.2543,VALID,-0.0169808,VALID,20.4285,VALID,348,VALID,0.462573,
2004-08-22, 00:23:00,VALID,917.935,VALID,0,VALID,98.1412,VALID,0,VALID,20.4121,VALID,348,VALID,0.451672,
2004-08-22, 00:24:00,VALID,917.939,VALID,0,VALID,98.1234,VALID,-0.0169808,VALID,20.4096,VALID,348,VALID,0.413876,
2004-08-22, 00:25:00,VALID,917.955,VALID,0,VALID,98.2289,VALID,-0.0339617,VALID,20.3935,VALID,348,VALID,0.330382,
2004-08-22, 00:26:00,VALID,917.966,VALID,0,VALID,98.2912,VALID,-0.0169808,VALID,20.3897,VALID,349,VALID,0.447266,
2004-08-22, 00:27:00,VALID,917.99,VALID,0,VALID,98.3929,VALID,0,VALID,20.3959,VALID,7,VALID,0.310724,
2004-08-22, 00:28:00,VALID,917.981,VALID,0,VALID,98.4311,VALID,-0.0169808,VALID,20.4029,VALID,7,VALID,0.414063,
2004-08-22, 00:29:00,VALID,917.977,VALID,0,VALID,98.4464,VALID,-0.0339617,VALID,20.3997,VALID,7,VALID,0.62128,
2004-08-22, 00:30:00,VALID,917.978,VALID,0,VALID,98.4578,VALID,0,VALID,20.4293,VALID,8,VALID,0.0893674,
2004-08-22, 00:31:00,VALID,917.975,VALID,0,VALID,98.4832,VALID,-0.0169808,VALID,20.4158,VALID,8,VALID,0.0204613,
2004-08-22, 00:32:00,VALID,917.967,VALID,0,VALID,98.5328,VALID,0,VALID,20.4255,VALID,8,VALID,0.292597,
2004-08-22, 00:33:00,VALID,917.965,VALID,0,VALID,98.6193,VALID,0,VALID,20.4282,VALID,11,VALID,0.682639,
2004-08-22, 00:34:00,VALID,917.975,VALID,0,VALID,98.8304,VALID,0,VALID,20.4543,VALID,6,VALID,0.563072,
2004-08-22, 00:35:00,VALID,917.994,VALID,0,VALID,98.7617,VALID,-0.0169808,VALID,20.4578,VALID,8,VALID,0.709077,
2004-08-22, 00:36:00,VALID,918.019,VALID,0,VALID,98.8406,VALID,-0.0169808,VALID,20.461,VALID,1,VALID,0.826172,
2004-08-22, 00:37:00,VALID,918.038,VALID,0,VALID,98.9016,VALID,-0.0169808,VALID,20.4707,VALID,341,VALID,0.410792,
2004-08-22, 00:38:00,VALID,918.057,VALID,0,VALID,98.8965,VALID,-0.0339617,VALID,20.4839,VALID,341,VALID,0.382465,
2004-08-22, 00:39:00,VALID,918.054,VALID,0,VALID,99.0071,VALID,0,VALID,20.4901,VALID,358,VALID,1.08358,
2004-08-22, 00:40:00,VALID,918.057,VALID,0,VALID,99.0974,VALID,-0.0339617,VALID,20.5189,VALID,12,VALID,0.702009,
2004-08-22, 00:41:00,VALID,918.04,VALID,0,VALID,99.1305,VALID,-0.0169808,VALID,20.555,VALID,357,VALID,0.580208,
2004-08-22, 00:42:00,VALID,918.008,VALID,0,VALID,99.1101,VALID,-0.0169808,VALID,20.5703,VALID,347,VALID,0.617388,
2004-08-22, 00:43:00,VALID,917.984,VALID,0,VALID,99.0109,VALID,0,VALID,20.5612,VALID,327,VALID,0.860102,
2004-08-22, 00:44:00,VALID,917.939,VALID,0,VALID,99.0033,VALID,-0.0169808,VALID,20.5711,VALID,346,VALID,0.553779,
2004-08-22, 00:45:00,VALID,917.886,VALID,0,VALID,98.9944,VALID,0,VALID,20.5703,VALID,12,VALID,0.90483,
2004-08-22, 00:46:00,VALID,917.845,VALID,0,VALID,98.9664,VALID,0,VALID,20.5711,VALID,354,VALID,0.586846,
2004-08-22, 00:47:00,VALID,917.81,VALID,0,VALID,98.9588,VALID,-0.0169808,VALID,20.5639,VALID,354,VALID,0.281822,
2004-08-22, 00:48:00,VALID,917.784,VALID,0,VALID,98.941,VALID,0,VALID,20.5776,VALID,354,VALID,0.277058,
2004-08-22, 00:49:00,VALID,917.774,VALID,0,VALID,98.8266,VALID,0,VALID,20.5646,VALID,357,VALID,0.39375,
2004-08-22, 00:50:00,VALID,917.756,VALID,0,VALID,98.7604,VALID,-0.0339617,VALID,20.5415,VALID,14,VALID,1.05487,
2004-08-22, 00:51:00,VALID,917.746,VALID,0,VALID,98.721,VALID,-0.0339617,VALID,20.5321,VALID,23,VALID,0.921342,
2004-08-22, 00:52:00,VALID,917.746,VALID,0,VALID,98.6485,VALID,0,VALID,20.5194,VALID,18,VALID,0.882813,
2004-08-22, 00:53:00,VALID,917.717,VALID,0,VALID,98.6498,VALID,-0.0169808,VALID,20.4963,VALID,21,VALID,1.01258,
2004-08-22, 00:54:00,VALID,917.68,VALID,0,VALID,98.6562,VALID,-0.0679233,VALID,20.4876,VALID,24,VALID,1.1503,
2004-08-22, 00:55:00,VALID,917.644,VALID,0,VALID,98.6956,VALID,-0.0849042,VALID,20.4755,VALID,25,VALID,1.12216,
2004-08-22, 00:56:00,VALID,917.601,VALID,0,VALID,98.7846,VALID,-0.0849042,VALID,20.4688,VALID,16,VALID,0.985465,
2004-08-22, 00:57:00,VALID,917.571,VALID,0,VALID,98.7897,VALID,-0.0849042,VALID,20.4621,VALID,18,VALID,0.972834,
2004-08-22, 00:58:00,VALID,917.557,VALID,0,VALID,98.7452,VALID,-0.0339617,VALID,20.4462,VALID,25,VALID,0.846719,
2004-08-22, 00:59:00,VALID,917.574,VALID,0,VALID,98.7782,VALID,-0.0849042,VALID,20.4338,VALID,18,VALID,1.10642,
2004-08-22, 01:00:00,VALID,917.588,VALID,0,VALID,98.7935,VALID,-0.0849042,VALID,20.4141,VALID,6,VALID,1.1317,
2004-08-22, 01:01:00,VALID,917.593,VALID,0,VALID,98.9525,VALID,-0.0679233,VALID,20.4079,VALID,6,VALID,1.28181,
2004-08-22, 01:02:00,VALID,917.603,VALID,0,VALID,98.9207,VALID,-0.0679233,VALID,20.3851,VALID,7,VALID,1.13377,
2004-08-22, 01:03:00,VALID,917.604,VALID,0,VALID,99.0377,VALID,-0.0509425,VALID,20.3786,VALID,353,VALID,0.740451,
2004-08-22, 01:04:00,VALID,917.598,VALID,0,VALID,99.1127,VALID,-0.101885,VALID,20.363,VALID,351,VALID,0.501817,
2004-08-22, 01:05:00,VALID,917.592,VALID,0,VALID,99.1597,VALID,-0.101885,VALID,20.3396,VALID,356,VALID,0.418155,
2004-08-22, 01:06:00,VALID,917.61,VALID,0,VALID,99.2131,VALID,-0.0849042,VALID,20.3528,VALID,3,VALID,0.403582,
2004-08-22, 01:07:00,VALID,917.609,VALID,0,VALID,99.2704,VALID,-0.0679233,VALID,20.3364,VALID,360,VALID,0.946403,
2004-08-22, 01:08:00,VALID,917.61,VALID,0,VALID,99.4229,VALID,-0.0849042,VALID,20.356,VALID,329,VALID,0.844295,
2004-08-22, 01:09:00,VALID,917.609,VALID,0,VALID,99.4357,VALID,-0.0339617,VALID,20.3647,VALID,16,VALID,0.786258,
2004-08-22, 01:10:00,VALID,917.605,VALID,0,VALID,99.4166,VALID,0.0169808,VALID,20.3572,VALID,11,VALID,1.10398,
2004-08-22, 01:11:00,VALID,917.6,VALID,0,VALID,99.3606,VALID,0.0169808,VALID,20.3475,VALID,7,VALID,1.16406,
2004-08-22, 01:12:00,VALID,917.591,VALID,0,VALID,99.4382,VALID,0,VALID,20.3445,VALID,1,VALID,1.01072,
2004-08-22, 01:13:00,VALID,917.581,VALID,0,VALID,99.353,VALID,0.0169808,VALID,20.3316,VALID,5,VALID,0.701079,
2004-08-22, 01:14:00,VALID,917.585,VALID,0,VALID,99.498,VALID,0.0169808,VALID,20.3219,VALID,312,VALID,0.749047,
2004-08-22, 01:15:00,VALID,917.575,VALID,0,VALID,99.6035,VALID,0,VALID,20.3348,VALID,299,VALID,0.416726,
2004-08-22, 01:16:00,VALID,917.563,VALID,0,VALID,99.6569,VALID,0.0509425,VALID,20.3512,VALID,297,VALID,0.14707,
2004-08-22, 01:17:00,VALID,917.554,VALID,0,VALID,99.6175,VALID,0.0169808,VALID,20.348,VALID,351,VALID,0.730755,
2004-08-22, 01:18:00,VALID,917.533,VALID,0,VALID,99.5272,VALID,0.0169808,VALID,20.3184,VALID,357,VALID,0.78032,
2004-08-22, 01:19:00,VALID,917.53,VALID,0,VALID,99.4967,VALID,0.0339617,VALID,20.309,VALID,15,VALID,1.38517,
2004-08-22, 01:20:00,VALID,917.552,VALID,0,VALID,99.5514,VALID,0.0339617,VALID,20.2899,VALID,4,VALID,1.09012,
2004-08-22, 01:21:00,VALID,917.572,VALID,0,VALID,99.676,VALID,0.0169808,VALID,20.3095,VALID,342,VALID,0.663876,
2004-08-22, 01:22:00,VALID,917.588,VALID,0,VALID,99.6951,VALID,0,VALID,20.3197,VALID,348,VALID,0.407813,
2004-08-22, 01:23:00,VALID,917.596,VALID,0,VALID,99.6544,VALID,0.0169808,VALID,20.3058,VALID,344,VALID,0.212984,
2004-08-22, 01:24:00,VALID,917.607,VALID,0,VALID,99.6073,VALID,0.0169808,VALID,20.2797,VALID,334,VALID,0.253711,
2004-08-22, 01:25:00,VALID,917.576,VALID,0,VALID,99.6442,VALID,0,VALID,20.3098,VALID,5,VALID,0.406808,
2004-08-22, 01:26:00,VALID,917.537,VALID,0,VALID,99.5717,VALID,0,VALID,20.2737,VALID,348,VALID,0.914807,
2004-08-22, 01:27:00,VALID,917.505,VALID,0,VALID,99.4942,VALID,0,VALID,20.2643,VALID,17,VALID,0.986737,
2004-08-22, 01:28:00,VALID,917.47,VALID,0,VALID,99.3734,VALID,0,VALID,20.2352,VALID,8,VALID,0.424733,
2004-08-22, 01:29:00,VALID,917.441,VALID,0,VALID,99.2805,VALID,0,VALID,20.2159,VALID,7,VALID,0.363735,
2004-08-22, 01:30:00,VALID,917.429,VALID,0,VALID,99.1661,VALID,0,VALID,20.1836,VALID,1,VALID,0.669922,
2004-08-22, 01:31:00,VALID,917.437,VALID,0,VALID,99.3301,VALID,0.0169808,VALID,20.1801,VALID,335,VALID,0.504836,
2004-08-22, 01:32:00,VALID,917.445,VALID,0,VALID,99.4484,VALID,0,VALID,20.2062,VALID,319,VALID,0.197852,
2004-08-22, 01:33:00,VALID,917.451,VALID,0,VALID,99.4713,VALID,0,VALID,20.2097,VALID,319,VALID,0.0498512,
2004-08-22, 01:34:00,VALID,917.453,VALID,0,VALID,99.4649,VALID,0.0169808,VALID,20.196,VALID,319,VALID,0.00117188,
2004-08-22, 01:35:00,VALID,917.436,VALID,0,VALID,99.4102,VALID,0.0169808,VALID,20.2099,VALID,319,VALID,0.0769097,
2004-08-22, 01:36:00,VALID,917.401,VALID,0,VALID,99.3581,VALID,0.0339617,VALID,20.1965,VALID,319,VALID,0.234738,
2004-08-22, 01:37:00,VALID,917.364,VALID,0,VALID,99.3136,VALID,0,VALID,20.1838,VALID,319,VALID,0.00545058,
2004-08-22, 01:38:00,VALID,917.348,VALID,0,VALID,99.1928,VALID,0.0169808,VALID,20.1577,VALID,319,VALID,0.0137195,
2004-08-22, 01:39:00,VALID,917.305,VALID,0,VALID,99.0491,VALID,0.0169808,VALID,20.1061,VALID,319,VALID,0,
2004-08-22, 01:40:00,VALID,917.292,VALID,0,VALID,99.1165,VALID,0.0339617,VALID,20.0795,VALID,348,VALID,0.362827,
2004-08-22, 01:41:00,VALID,917.285,VALID,0,VALID,99.2691,VALID,0.0509425,VALID,20.0867,VALID,12,VALID,0.431734,
2004-08-22, 01:42:00,VALID,917.295,VALID,0,VALID,99.2182,VALID,0,VALID,20.087,VALID,49,VALID,0.425426,
2004-08-22, 01:43:00,VALID,917.293,VALID,0,VALID,98.9792,VALID,0.0169808,VALID,20.0576,VALID,58,VALID,0.169444,
2004-08-22, 01:44:00,VALID,917.301,VALID,0,VALID,98.8812,VALID,0.0169808,VALID,20.0023,VALID,58,VALID,0.00237772,
2004-08-22, 01:45:00,VALID,917.31,VALID,0,VALID,98.7948,VALID,0.0169808,VALID,19.9605,VALID,58,VALID,0,
2004-08-22, 01:46:00,VALID,917.302,VALID,0,VALID,98.9207,VALID,0,VALID,19.9446,VALID,58,VALID,0,
2004-08-22, 01:47:00,VALID,917.306,VALID,0,VALID,98.8533,VALID,0.0169808,VALID,19.9156,VALID,58,VALID,0,
2004-08-22, 01:48:00,VALID,917.304,VALID,0,VALID,98.4489,VALID,0.0169808,VALID,19.8351,VALID,58,VALID,0.0786701,
2004-08-22, 01:49:00,VALID,917.318,VALID,0,VALID,98.4692,VALID,0.0169808,VALID,19.7603,VALID,25,VALID,0.380451,
2004-08-22, 01:50:00,VALID,917.316,VALID,0,VALID,98.6053,VALID,0,VALID,19.7412,VALID,360,VALID,0.102805,
2004-08-22, 01:51:00,VALID,917.33,VALID,0,VALID,98.7681,VALID,0.0509425,VALID,19.7283,VALID,4,VALID,0.426067,
2004-08-22, 01:52:00,VALID,917.331,VALID,0,VALID,98.9855,VALID,0.0339617,VALID,19.7571,VALID,25,VALID,0.292578,
2004-08-22, 01:53:00,VALID,917.328,VALID,0,VALID,98.852,VALID,0,VALID,19.7829,VALID,25,VALID,0.357922,
2004-08-22, 01:54:00,VALID,917.322,VALID,0,VALID,98.5227,VALID,0,VALID,19.7929,VALID,25,VALID,0.123183,
2004-08-22, 01:55:00,VALID,917.317,VALID,0,VALID,98.042,VALID,0,VALID,19.7762,VALID,77,VALID,0.762463,
2004-08-22, 01:56:00,VALID,917.324,VALID,0,VALID,98.0382,VALID,0,VALID,19.7966,VALID,81,VALID,0.76863,
2004-08-22, 01:57:00,VALID,917.34,VALID,0,VALID,97.8156,VALID,0,VALID,19.887,VALID,81,VALID,0.614329,
2004-08-22, 01:58:00,VALID,917.362,VALID,0,VALID,97.3337,VALID,0.0169808,VALID,19.9675,VALID,81,VALID,0.566501,
2004-08-22, 01:59:00,VALID,917.373,VALID,0,VALID,96.7589,VALID,0,VALID,20.0323,VALID,81,VALID,0.430051,
2004-08-22, 02:00:00,VALID,917.366,VALID,0,VALID,96.0774,VALID,0,VALID,20.0514,VALID,81,VALID,0.259993,
2004-08-22, 02:01:00,VALID,917.345,VALID,0,VALID,94.7701,VALID,0,VALID,19.9486,VALID,80,VALID,0.163504,
2004-08-22, 02:02:00,VALID,917.304,VALID,0,VALID,94.8312,VALID,-0.0169808,VALID,19.8222,VALID,70,VALID,0.531605,
2004-08-22, 02:03:00,VALID,917.276,VALID,0,VALID,95.5776,VALID,0,VALID,19.7253,VALID,68,VALID,0.579578,
2004-08-22, 02:04:00,VALID,917.255,VALID,0,VALID,96.4461,VALID,0.0169808,VALID,19.706,VALID,68,VALID,0.105015,
2004-08-22, 02:05:00,VALID,917.224,VALID,0,VALID,96.7958,VALID,0.0169808,VALID,19.6896,VALID,68,VALID,0.0012718,
2004-08-22, 02:06:00,VALID,917.205,VALID,0,VALID,96.9293,VALID,0,VALID,19.6769,VALID,68,VALID,0.00123355,
2004-08-22, 02:07:00,VALID,917.186,VALID,0,VALID,97.2549,VALID,0,VALID,19.6935,VALID,68,VALID,0.112614,
2004-08-22, 02:08:00,VALID,917.187,VALID,0,VALID,97.3134,VALID,0,VALID,19.7092,VALID,68,VALID,0.11756,
2004-08-22, 02:09:00,VALID,917.182,VALID,0,VALID,96.5949,VALID,-0.0169808,VALID,19.6834,VALID,68,VALID,0,
2004-08-22, 02:10:00,VALID,917.207,VALID,0,VALID,96.5148,VALID,0,VALID,19.6382,VALID,68,VALID,0,
2004-08-22, 02:11:00,VALID,917.206,VALID,0,VALID,96.5682,VALID,0,VALID,19.626,VALID,68,VALID,0,
2004-08-22, 02:12:00,VALID,917.24,VALID,0,VALID,96.263,VALID,0,VALID,19.5741,VALID,68,VALID,0,
2004-08-22, 02:13:00,VALID,917.28,VALID,0,VALID,95.837,VALID,0,VALID,19.4737,VALID,68,VALID,0,
2004-08-22, 02:14:00,VALID,917.326,VALID,0,VALID,96.3406,VALID,0,VALID,19.4027,VALID,68,VALID,0.237723,
2004-08-22, 02:15:00,VALID,917.376,VALID,0,VALID,97.2383,VALID,-0.0169808,VALID,19.3831,VALID,74,VALID,0.678472,
2004-08-22, 02:16:00,VALID,917.416,VALID,0,VALID,97.513,VALID,0,VALID,19.3935,VALID,75,VALID,0.660633,
2004-08-22, 02:17:00,VALID,917.446,VALID,0,VALID,97.8449,VALID,0,VALID,19.4191,VALID,81,VALID,0.681641,
2004-08-22, 02:18:00,VALID,917.464,VALID,0,VALID,97.6834,VALID,0,VALID,19.4419,VALID,96,VALID,0.771802,
2004-08-22, 02:19:00,VALID,917.475,VALID,0,VALID,97.6669,VALID,0,VALID,19.4253,VALID,101,VALID,0.948289,
2004-08-22, 02:20:00,VALID,917.468,VALID,0,VALID,97.7838,VALID,0,VALID,19.4804,VALID,92,VALID,1.02066,
2004-08-22, 02:21:00,VALID,917.475,VALID,0,VALID,97.555,VALID,-0.0169808,VALID,19.5289,VALID,94,VALID,1.06008,
2004-08-22, 02:22:00,VALID,917.475,VALID,0,VALID,97.3757,VALID,-0.0169808,VALID,19.5547,VALID,103,VALID,0.943979,
2004-08-22, 02:23:00,VALID,917.48,VALID,0,VALID,97.0514,VALID,0,VALID,19.548,VALID,132,VALID,0.942472,
2004-08-22, 02:24:00,VALID,917.485,VALID,0,VALID,97.1582,VALID,0.0169808,VALID,19.5095,VALID,127,VALID,0.967188,
2004-08-22, 02:25:00,VALID,917.482,VALID,0,VALID,97.5028,VALID,0.0169808,VALID,19.4837,VALID,127,VALID,1.02458,
2004-08-22, 02:26:00,VALID,917.473,VALID,0,VALID,98.1552,VALID,0.0169808,VALID,19.4971,VALID,126,VALID,1.17896,
2004-08-22, 02:27:00,VALID,917.454,VALID,0,VALID,98.6918,VALID,0.0169808,VALID,19.5222,VALID,126,VALID,1.08945,
2004-08-22, 02:28:00,VALID,917.43,VALID,0,VALID,98.6384,VALID,0,VALID,19.5418,VALID,104,VALID,0.813715,
2004-08-22, 02:29:00,VALID,917.39,VALID,0,VALID,98.7185,VALID,0.0169808,VALID,19.5386,VALID,98,VALID,1.05469,
2004-08-22, 02:30:00,VALID,917.364,VALID,0,VALID,99.3797,VALID,0.0169808,VALID,19.5897,VALID,96,VALID,0.988735,
2004-08-22, 02:31:00,VALID,917.328,VALID,0,VALID,99.0694,VALID,0,VALID,19.5932,VALID,61,VALID,0.485973,
2004-08-22, 02:32:00,VALID,917.28,VALID,0,VALID,98.3904,VALID,0,VALID,19.4896,VALID,49,VALID,0.514101,
2004-08-22, 02:33:00,VALID,917.26,VALID,0,VALID,98.454,VALID,0.0169808,VALID,19.4613,VALID,49,VALID,0.145241,
2004-08-22, 02:34:00,VALID,917.227,VALID,0,VALID,98.7541,VALID,-0.0169808,VALID,19.4549,VALID,62,VALID,0.327415,
2004-08-22, 02:35:00,VALID,917.198,VALID,0,VALID,99.0402,VALID,0,VALID,19.4641,VALID,107,VALID,0.610647,
2004-08-22, 02:36:00,VALID,917.178,VALID,0,VALID,99.4051,VALID,0.0169808,VALID,19.5063,VALID,112,VALID,0.668501,
2004-08-22, 02:37:00,VALID,917.182,VALID,0,VALID,99.6188,VALID,0,VALID,19.5455,VALID,112,VALID,0.782012,
2004-08-22, 02:38:00,VALID,917.181,VALID,0,VALID,99.5844,VALID,0.0339617,VALID,19.5482,VALID,116,VALID,0.659884,
2004-08-22, 02:39:00,VALID,917.205,VALID,0,VALID,99.6417,VALID,0.0169808,VALID,19.5455,VALID,117,VALID,0.613917,
2004-08-22, 02:40:00,VALID,917.233,VALID,0,VALID,99.0923,VALID,0,VALID,19.4645,VALID,86,VALID,0.296494,
2004-08-22, 02:41:00,VALID,917.237,VALID,0,VALID,98.6028,VALID,0,VALID,19.3195,VALID,28,VALID,0.819404,
2004-08-22, 02:42:00,VALID,917.265,VALID,0,VALID,98.6269,VALID,-0.0169808,VALID,19.2293,VALID,29,VALID,1.23238,
2004-08-22, 02:43:00,VALID,917.299,VALID,0,VALID,99.086,VALID,-0.0339617,VALID,19.2095,VALID,29,VALID,0.689631,
2004-08-22, 02:44:00,VALID,917.325,VALID,0,VALID,99.1826,VALID,0,VALID,19.1777,VALID,29,VALID,0.132631,
2004-08-22, 02:45:00,VALID,917.339,VALID,0,VALID,99.3339,VALID,-0.0169808,VALID,19.1613,VALID,29,VALID,0,
2004-08-22, 02:46:00,VALID,917.343,VALID,0,VALID,99.5234,VALID,0,VALID,19.174,VALID,29,VALID,0,
2004-08-22, 02:47:00,VALID,917.334,VALID,0,VALID,99.7103,VALID,0,VALID,19.2033,VALID,29,VALID,0,
2004-08-22, 02:48:00,VALID,917.313,VALID,0,VALID,99.8388,VALID,0,VALID,19.242,VALID,29,VALID,0,
2004-08-22, 02:49:00,VALID,917.288,VALID,0,VALID,99.826,VALID,0,VALID,19.2519,VALID,29,VALID,0,
2004-08-22, 02:50:00,VALID,917.27,VALID,0,VALID,99.8909,VALID,0,VALID,19.2649,VALID,29,VALID,0,
2004-08-22, 02:51:00,VALID,917.247,VALID,0,VALID,99.6493,VALID,0,VALID,19.242,VALID,29,VALID,0,
2004-08-22, 02:52:00,VALID,917.254,VALID,0,VALID,98.9029,VALID,0.0169808,VALID,19.0739,VALID,29,VALID,0.164971,
2004-08-22, 02:53:00,VALID,917.241,VALID,0,VALID,98.8393,VALID,0,VALID,18.9842,VALID,28,VALID,0.43407,
2004-08-22, 02:54:00,VALID,917.233,VALID,0,VALID,99.6328,VALID,-0.0339617,VALID,19.0518,VALID,25,VALID,0.39596,
2004-08-22, 02:55:00,VALID,917.216,VALID,0,VALID,100,VALID,0,VALID,19.1715,VALID,25,VALID,0.267223,
2004-08-22, 02:56:00,VALID,917.209,VALID,0,VALID,100,VALID,0,VALID,19.2515,VALID,10,VALID,0.355378,
2004-08-22, 02:57:00,VALID,917.199,VALID,0,VALID,100,VALID,0,VALID,19.3093,VALID,358,VALID,0.343936,
2004-08-22, 02:58:00,VALID,917.176,VALID,0,VALID,100,VALID,0,VALID,19.3453,VALID,357,VALID,0.253049,
2004-08-22, 02:59:00,VALID,917.181,VALID,0,VALID,100,VALID,0,VALID,19.3776,VALID,353,VALID,0.350446,
2004-08-22, 03:00:00,VALID,917.193,VALID,0,VALID,100,VALID,0,VALID,19.426,VALID,353,VALID,0.115885,
2004-08-22, 03:01:00,VALID,917.229,VALID,0,VALID,100,VALID,0,VALID,19.3938,VALID,353,VALID,0.124814,
2004-08-22, 03:02:00,VALID,917.277,VALID,0,VALID,99.9916,VALID,0,VALID,19.3746,VALID,350,VALID,0.223214,
2004-08-22, 03:03:00,VALID,917.323,VALID,0,VALID,99.5908,VALID,-0.0339617,VALID,19.323,VALID,350,VALID,0.326637,
2004-08-22, 03:04:00,VALID,917.363,VALID,0,VALID,98.9944,VALID,0,VALID,19.1943,VALID,28,VALID,0.500372,
2004-08-22, 03:05:00,VALID,917.416,VALID,0,VALID,99.545,VALID,0,VALID,19.1874,VALID,46,VALID,0.462713,
2004-08-22, 03:06:00,VALID,917.456,VALID,0,VALID,99.9644,VALID,-0.0169808,VALID,19.2872,VALID,60,VALID,0.742733,
2004-08-22, 03:07:00,VALID,917.488,VALID,0,VALID,99.9402,VALID,-0.0339617,VALID,19.362,VALID,69,VALID,1.00372,
2004-08-22, 03:08:00,VALID,917.512,VALID,0,VALID,99.6849,VALID,0,VALID,19.3776,VALID,83,VALID,1.14371,
2004-08-22, 03:09:00,VALID,917.544,VALID,0,VALID,99.4166,VALID,0,VALID,19.3421,VALID,83,VALID,1.11257,
2004-08-22, 03:10:00,VALID,917.572,VALID,0,VALID,99.3034,VALID,-0.0169808,VALID,19.3294,VALID,82,VALID,1.06559,
2004-08-22, 03:11:00,VALID,917.584,VALID,0,VALID,99.133,VALID,-0.0339617,VALID,19.3101,VALID,80,VALID,0.988867,
2004-08-22, 03:12:00,VALID,917.591,VALID,0,VALID,99.1,VALID,0,VALID,19.3004,VALID,92,VALID,1.20585,
2004-08-22, 03:13:00,VALID,917.592,VALID,0,VALID,99.03,VALID,-0.0169808,VALID,19.3297,VALID,99,VALID,1.21535,
2004-08-22, 03:14:00,VALID,917.57,VALID,0,VALID,98.9067,VALID,-0.0339617,VALID,19.3456,VALID,114,VALID,1.06836,
2004-08-22, 03:15:00,VALID,917.541,VALID,0,VALID,98.9944,VALID,-0.0169808,VALID,19.3518,VALID,129,VALID,1.50037,
2004-08-22, 03:16:00,VALID,917.507,VALID,0,VALID,99.0656,VALID,-0.0169808,VALID,19.3391,VALID,127,VALID,1.38063,
2004-08-22, 03:17:00,VALID,917.481,VALID,0,VALID,99.2297,VALID,-0.0169808,VALID,19.3327,VALID,132,VALID,1.13033,
2004-08-22, 03:18:00,VALID,917.449,VALID,0,VALID,99.3644,VALID,0,VALID,19.3068,VALID,129,VALID,0.927144,
2004-08-22, 03:19:00,VALID,917.422,VALID,0,VALID,99.5132,VALID,-0.0169808,VALID,19.2842,VALID,114,VALID,0.861662,
2004-08-22, 03:20:00,VALID,917.413,VALID,0,VALID,99.6175,VALID,0,VALID,19.2678,VALID,79,VALID,0.892361,
2004-08-22, 03:21:00,VALID,917.387,VALID,0,VALID,99.6989,VALID,-0.0169808,VALID,19.236,VALID,67,VALID,0.777148,
2004-08-22, 03:22:00,VALID,917.38,VALID,0,VALID,99.7752,VALID,0,VALID,19.2261,VALID,55,VALID,0.543924,
2004-08-22, 03:23:00,VALID,917.391,VALID,0,VALID,99.8273,VALID,0,VALID,19.2035,VALID,39,VALID,0.541159,
2004-08-22, 03:24:00,VALID,917.374,VALID,0,VALID,99.8833,VALID,0,VALID,19.1938,VALID,31,VALID,0.557292,
2004-08-22, 03:25:00,VALID,917.376,VALID,0,VALID,99.9405,VALID,-0.0169808,VALID,19.171,VALID,29,VALID,0.415661,
2004-08-22, 03:26:00,VALID,917.364,VALID,0,VALID,99.9903,VALID,-0.0169808,VALID,19.1814,VALID,21,VALID,0.430233,
2004-08-22, 03:27:00,VALID,917.347,VALID,0,VALID,100,VALID,-0.0339617,VALID,19.1844,VALID,18,VALID,0.281068,
2004-08-22, 03:28:00,VALID,917.331,VALID,0,VALID,100,VALID,0,VALID,19.1749,VALID,18,VALID,0.174665,
2004-08-22, 03:29:00,VALID,917.314,VALID,0,VALID,100,VALID,-0.0169808,VALID,19.1715,VALID,18,VALID,0,
2004-08-22, 03:30:00,VALID,917.29,VALID,0,VALID,100,VALID,-0.0509425,VALID,19.1779,VALID,18,VALID,0.0476372,
2004-08-22, 03:31:00,VALID,917.283,VALID,0,VALID,100,VALID,-0.0679233,VALID,19.168,VALID,18,VALID,0.0337936,
2004-08-22, 03:32:00,VALID,917.252,VALID,0,VALID,100,VALID,-0.0169808,VALID,19.1653,VALID,18,VALID,0,
2004-08-22, 03:33:00,VALID,917.253,VALID,0,VALID,100,VALID,-0.0509425,VALID,19.1779,VALID,18,VALID,0,
2004-08-22, 03:34:00,VALID,917.251,VALID,0,VALID,100,VALID,-0.0169808,VALID,19.1844,VALID,18,VALID,0,
2004-08-22, 03:35:00,VALID,917.248,VALID,0,VALID,100,VALID,0,VALID,19.1908,VALID,18,VALID,0,
2004-08-22, 03:36:00,VALID,917.247,VALID,0,VALID,100,VALID,-0.0509425,VALID,19.1715,VALID,18,VALID,0,
2004-08-22, 03:37:00,VALID,917.223,VALID,0,VALID,100,VALID,0,VALID,19.1553,VALID,18,VALID,0,
2004-08-22, 03:38:00,VALID,917.218,VALID,0,VALID,100,VALID,-0.0339617,VALID,19.1454,VALID,18,VALID,0,